Regional Weather Roundup
Issued by NWS

Home | Current Version | Previous Version | Text Only | Print | Product List | Glossary Off
Versions: 1 2 3 4 5 6 7 8 9 10 11 12 13 14 15 16 17 18 19 20 21 22 23 24 25 26 27 28 29 30 31 32 33 34 35 36 37 38 39 40 41 42 43 44 45 46 47 48 49 50

000
ASUS44 KMEG 052210
RWRTN
TENNESSEE HOURLY STATE WEATHER ROUNDUP
NATIONAL WEATHER SERVICE MEMPHIS TN
500 PM CDT TUE MAY 05 2015

TNZ002-004-019-021-049-052-054-088>092-052300-
WEST TENNESSEE

CITY           SKY/WX    TMP DP  RH WIND       PRES   REMARKS
MEMPHIS INTL   MOSUNNY   84  51  31 S14       30.13F
NWS MEMPHIS      N/A     84 N/A N/A MISG        N/A
JACKSON        SUNNY     84  50  30 VRB6      30.15F
DYERSBURG      MOSUNNY   84  48  28 S5        30.14F
PARIS          SUNNY     81  52  36 S6        30.16F
LEXINGTON      SUNNY     82  48  30 S8        30.16F
$$

TNZ008-025-027-028-033-062-065-066-052300-
NORTH MIDDLE TENNESSEE

CITY           SKY/WX    TMP DP  RH WIND       PRES   REMARKS
NASHVILLE      MOSUNNY   85  51  31 VRB5      30.18F
CLARKSVILLE    SUNNY     82  52  35 S5        30.16F
SMYRNA         SUNNY     84  52  33 VRB5      30.19F
COOKEVILLE     SUNNY     84  55  37 CALM      30.20F
CROSSVILLE     SUNNY     76  51  41 W5        30.25F
$$

TNZ061-075-076-078-094-096-097-052300-
SOUTH MIDDLE TENNESSEE

CITY           SKY/WX    TMP DP  RH WIND       PRES   REMARKS
FAYETTEVILLE     N/A     81  50  34 VRB6      30.20S
TULLAHOMA      MOSUNNY   81  50  34 S6        30.21F
WINCHESTER     SUNNY     82  54  36 CALM      30.20F
MCMINNVILLE    SUNNY     81  55  41 CALM      30.21F
COLUMBIA       SUNNY     84  54  34 S6        30.17F
SHELBYVILLE    PTSUNNY   84  57  39 S7        30.20F
$$

TNZ017-018-042-046-047-052300-
NORTHEAST TENNESSEE

CITY           SKY/WX    TMP DP  RH WIND       PRES   REMARKS
TRI CITIES     MOSUNNY   82  45  27 CALM      30.22F
ELIZABETHTON   CLOUDY    75  50  41 SW6       30.24R
$$

TNZ012-013-036-069-073-074-052300-
CENTRAL EAST TENNESSEE

CITY           SKY/WX    TMP DP  RH WIND       PRES   REMARKS
KNOXVILLE      MOSUNNY   83  52  34 VRB3      30.20F
OAK RIDGE      SUNNY     84  50  30 VRB3      30.21F
GATLINBURG     CLEAR     82  50  32 E5        30.20S
MORRISTOWN     CLEAR     81  52  36 NW7       30.23S
$$

TNZ083-085-099-052300-
SOUTHEAST TENNESSEE

CITY           SKY/WX    TMP DP  RH WIND       PRES   REMARKS
CHATTANOOGA    MOSUNNY   82  53  36 VRB6      30.20F
$$

SKY/WX REPORTED AS FAIR MEANS FEW OR NO CLOUDS BELOW
12 THOUSAND FEET.



USA.gov is the U.S. government's official web portal to all federal, state and local government web resources and services.